Regional Weather Roundup
Issued by NWS Charleston, WV

Home | Current Version | Previous Version | Graphics & Text | Print | Product List | Glossary On
Versions: 1 2 3 4 5 6 7 8 9 10 11 12 13 14 15 16 17 18 19 20 21 22 23 24 25 26 27 28 29 30 31 32 33 34 35 36 37 38 39 40 41 42 43 44 45 46 47 48 49 50
000
ASUS41 KRLX 032210
RWRRLX
West Virginia Regional Weather Roundup
National Weather Service Charleston WV
600 PM EDT MON AUG 03 2015

Note: "fair" indicates few or no clouds below 12,000 feet with no
significant weather and/or obstructions to visibility.

WVZ003-032300-
Northern Panhandle of West Virginia

CITY           SKY/WX    TMP DP  RH WIND       PRES   REMARKS
WHEELING       TSTM      72  63  73 N15G30    29.84R
$$

WVZ009-032300-
Northwest West Virginia

CITY           SKY/WX    TMP DP  RH WIND       PRES   REMARKS
PARKERSBURG    PTSUNNY   85  64  49 SW12      29.87R
$$

WVZ006-032300-
Western West Virginia

CITY           SKY/WX    TMP DP  RH WIND       PRES   REMARKS
HUNTINGTON     MOSUNNY   86  66  51 SW12      29.86S
$$

WVZ015-032300-
West Central West Virginia

CITY           SKY/WX    TMP DP  RH WIND       PRES   REMARKS
CHARLESTON     SUNNY     86  63  45 SW14      29.87S
$$

WVZ022-031-032300-
North Central West Virginia

CITY           SKY/WX    TMP DP  RH WIND       PRES   REMARKS
CLARKSBURG     SUNNY     84  61  45 SW14      29.85F
MORGANTOWN     PTSUNNY   85  58  39 SW8       29.86S
$$

WVZ025-035-042-045-032300-
Southern West Virginia

CITY           SKY/WX    TMP DP  RH WIND       PRES   REMARKS
BECKLEY        SUNNY     81  60  48 SW9       29.98F
LOGAN          NOT AVBL
BLUEFIELD      SUNNY     84  58  40 W8        30.02F
LEWISBURG      SUNNY     85  55  35 W8        29.96F
$$

WVZ047-032300-
Northern Mountains of West Virginia

CITY           SKY/WX    TMP DP  RH WIND       PRES   REMARKS
ELKINS         SUNNY     83  55  38 W7        29.91F
$$

WVZ052-032300-
Eastern Panhandle of West Virginia

CITY           SKY/WX    TMP DP  RH WIND       PRES   REMARKS
MARTINSBURG    PTSUNNY   87  56  34 SW7       29.81S
PETERSBURG     SUNNY     88  57  34 W3        29.84F
$$


USA.gov is the U.S. government's official web portal to all federal, state and local government web resources and services.